[[{"header":{"parameterUnit":"m.s-1","parameterCategory":1,"la1":30.2991,"la2":30.254,"lo1":-89.0895,"lo2":-89.0444,"dy":0.0017,"dx":0.0017,"nx":28,"ny":28,"refTime":"2025-05-26T21:00:00:Z","depth":0,"parameterNumber":2,"parameterNumberName":"U-component_of_WINDS"},"data":[0,0,0,0,0,0,0,0,0,0,0,0,0,0,0,0,0,0,0,0,0,0,0,0,0,0,0,0,0,0,0,0,0,0,0,0,0,0,0,0,0,0,0,0,0,0,0,0,0,0,0,0,0,0,0,0,0,0,0.4974,0.4974,0,0.5045,0.5046,0.5047,0.5061,0.506,0.506,0.5059,0.5134,0.5136,0.5139,0,0,0,0,0,0,0,0,0,0,0,0,0,0.485,0.4852,0.4974,0.4974,0.4975,0.5045,0.5046,0.5047,0.5061,0.506,0.5059,0.5059,0.5133,0.5136,0.5139,0,0,0,0,0,0,0,0,0,0,0,0,0,0.4911,0.4853,0.4973,0.4991,0.4993,0.5045,0.5046,0.5047,0.5061,0.506,0.5059,0.5058,0.5132,0.5136,0.5139,0.5179,0,0,0.5151,0.5153,0,0,0,0,0,0,0,0,0.4908,0.4915,0.4987,0.499,0.4992,0.5043,0.503,0.5091,0.5061,0.5035,0.5059,0.5058,0.5104,0.511,0.5126,0.5183,0.5186,0.5151,0.5154,0.5155,0.5156,0,0,0,0,0,0,0,0.4903,0.4913,0.5002,0.4988,0.4991,0.4995,0.5003,0.5042,0.5074,0.5037,0.5039,0.5047,0.5106,0.5122,0.5128,0.5187,0.5151,0.5155,0.5157,0.5158,0.528,0.5281,0,0,0,0,0,0,0.4896,0.4909,0.5,0.5004,0.4947,0.4998,0.5007,0.5028,0.5073,0.5079,0.5047,0.5047,0.5116,0.5123,0.513,0.5179,0.5155,0.5159,0.5161,0.5279,0.528,0.5281,0,0,0,0,0,0,0.4893,0.4904,0.4997,0.4957,0.4969,0.5001,0.5024,0.5029,0.5046,0.5081,0.5087,0.5058,0.5116,0.5125,0.5167,0.5182,0.516,0.5164,0.5278,0.5279,0.5281,0.5278,0,0,0,0,0,0,0.489,0.4903,0.4918,0.4957,0.4971,0.5032,0.5025,0.5031,0.5052,0.5052,0.5092,0.5098,0.5116,0.5161,0.517,0.5187,0.5167,0.5277,0.5278,0.528,0.5277,0.5279,0.5281,0,0,0,0,0,0.4885,0.4915,0.4919,0.493,0.4991,0.5033,0.5041,0.5059,0.5053,0.5069,0.5091,0.5097,0.5179,0.5165,0.5176,0.5194,0.5276,0.5278,0.528,0.5276,0.5279,0.5281,0,0,0,0,0,0,0.4878,0.4921,0.4925,0.4969,0.4997,0.5035,0.5055,0.5062,0.5093,0.5092,0.5115,0.5124,0.5164,0.5183,0.5167,0.5234,0.5227,0.5231,0.522,0.5223,0.5225,0.522,0.517,0,0,0,0,0,0.4881,0.4911,0.4947,0.4982,0.4996,0.5023,0.5042,0.5054,0.5084,0.5096,0.5122,0.5151,0.5184,0.5205,0.5237,0.528,0.5289,0.5297,0.53,0.5301,0.5305,0.5328,0.5333,0.5288,0.5288,0.5288,0,0,0.4889,0.4916,0.4934,0.4981,0.5005,0.5035,0.5033,0.5066,0.5089,0.5102,0.5142,0.5162,0.5196,0.5239,0.5259,0.5256,0.5319,0.5304,0.5305,0.5308,0.5331,0.5335,0.5339,0.529,0.529,0.5289,0,0,0.4918,0.4942,0.4973,0.4996,0.5031,0.5049,0.5056,0.5093,0.5106,0.5147,0.5157,0.5185,0.524,0.5264,0.5284,0.5321,0.5327,0.5331,0.5342,0.5365,0.5368,0.5371,0.5384,0.5388,0.5334,0.5334,0.5334,0,0.4923,0.4969,0.4988,0.502,0.5041,0.5053,0.5085,0.5106,0.515,0.5164,0.516,0.5229,0.5253,0.5301,0.531,0.5325,0.5334,0.5326,0.5366,0.537,0.5373,0.5385,0.539,0.5334,0.5334,0.5334,0.5334,0,0.4973,0.5005,0.5026,0.5067,0.509,0.5122,0.5146,0.5167,0.5176,0.5195,0.5236,0.5265,0.5302,0.5315,0.5325,0.5364,0.5361,0.5361,0.5354,0.5377,0.5389,0.5394,0.5334,0.5334,0.5334,0.5334,0,0,0.5,0.5051,0.5058,0.5076,0.5115,0.514,0.5173,0.5208,0.5226,0.5255,0.5283,0.5329,0.5329,0.5351,0.5364,0.5384,0.5411,0.5382,0.5383,0.5386,0.5455,0.5454,0.5459,0.5415,0.5416,0.5417,0.5451,0,0.5034,0.5091,0.5108,0.5156,0.5186,0.5197,0.5225,0.5252,0.527,0.5298,0.5318,0.5349,0.5348,0.5361,0.5381,0.5403,0.5425,0.5401,0.5441,0.5442,0.5431,0.5465,0.5465,0.5496,0.5456,0.5457,0.5458,0,0.508,0.511,0.516,0.5195,0.5208,0.5232,0.5266,0.5293,0.5323,0.5335,0.5359,0.537,0.5404,0.5395,0.5442,0.5425,0.5443,0.5456,0.5457,0.5462,0.5451,0.547,0.5506,0.5511,0.5465,0.5465,0.5464,0,0.5094,0.5146,0.5183,0.5199,0.524,0.5257,0.5275,0.5305,0.5325,0.5355,0.5368,0.5401,0.542,0.5446,0.5466,0.5457,0.5511,0.5504,0.5521,0.5521,0.5532,0.5531,0.5571,0.5544,0.5543,0.5543,0.5543,0,0.5129,0.5159,0.519,0.5212,0.5246,0.5266,0.53,0.5318,0.5345,0.5371,0.5384,0.5408,0.5433,0.5461,0.5477,0.5513,0.5522,0.5532,0.5536,0.5531,0.5529,0.5542,0.554,0.5545,0.5544,0.5544,0.5544,0,0.515,0.5172,0.5212,0.5248,0.5257,0.5281,0.5311,0.5334,0.5351,0.5385,0.5394,0.5422,0.5455,0.5478,0.5521,0.5532,0.5571,0.5575,0.556,0.5562,0.5578,0.5576,0.5628,0.5635,0.5603,0.5603,0.5604,0,0.5171,0.5194,0.5232,0.525,0.5268,0.5297,0.5318,0.5338,0.5359,0.5395,0.5413,0.5447,0.5476,0.5529,0.5553,0.5586,0.559,0.5606,0.5596,0.5589,0.559,0.5588,0.559,0.5608,0.5608,0.5608,0.5608,0,0.5205,0.5214,0.5243,0.5275,0.5299,0.5325,0.5352,0.5366,0.5391,0.5414,0.5448,0.547,0.5513,0.5547,0.5582,0.5601,0.5609,0.5612,0.5617,0.5612,0.5602,0.5607,0.5564,0.561,0.561,0.561,0.561,0.561,0.5226,0.5247,0.5276,0.5308,0.533,0.5354,0.5376,0.5397,0.5425,0.5462,0.5472,0.5507,0.5537,0.5585,0.5604,0.5632,0.5631,0.5639,0.5641,0.5643,0.5643,0.5598,0.5639,0.5639,0.5639,0.5639,0.5639,0,0.526,0.5279,0.5308,0.5344,0.5369,0.5374,0.5403,0.5423,0.5454,0.5481,0.5508,0.5547,0.5579,0.5606,0.564,0.5657,0.5661,0.5665,0.5664,0.5668,0.5642,0.5634,0.5661,0.5661,0.5661,0.5661,0.5661,0.5661,0.5281,0.5316,0.5329,0.5375,0.5395,0.5429,0.5445,0.5468,0.5489,0.5531,0.5558,0.5575,0.5602,0.5637,0.5667,0.5675,0.5686,0.5689,0.5697,0.5672,0.567,0.5667,0.5659,0.5691,0.5691,0.572,0.572,0.572]},{"header":{"parameterUnit":"m.s-1","parameterCategory":1,"la1":30.2991,"la2":30.254,"lo1":-89.0895,"lo2":-89.0444,"dy":0.0017,"dx":0.0017,"nx":28,"ny":28,"refTime":"2025-05-26T21:00:00:Z","depth":0,"parameterNumber":3,"parameterNumberName":"V-component_of_WINDS"},"data":[0,0,0,0,0,0,0,0,0,0,0,0,0,0,0,0,0,0,0,0,0,0,0,0,0,0,0,0,0,0,0,0,0,0,0,0,0,0,0,0,0,0,0,0,0,0,0,0,0,0,0,0,0,0,0,0,0,0,4.34,4.3401,0,4.344,4.3441,4.3441,4.3404,4.3403,4.3402,4.34,4.3436,4.3438,4.344,0,0,0,0,0,0,0,0,0,0,0,0,0,4.3289,4.3291,4.34,4.3401,4.3401,4.344,4.3441,4.3441,4.3405,4.3403,4.3401,4.3399,4.3435,4.3438,4.3441,0,0,0,0,0,0,0,0,0,0,0,0,0,4.3333,4.3292,4.34,4.3388,4.3387,4.344,4.3441,4.3441,4.3405,4.3403,4.3401,4.3399,4.3434,4.3438,4.3441,4.3506,0,0,4.3452,4.3453,0,0,0,0,0,0,0,0,4.3331,4.3338,4.3389,4.3389,4.3388,4.3415,4.3414,4.3463,4.3406,4.3398,4.34,4.3398,4.343,4.3434,4.3446,4.3508,4.3509,4.3452,4.3454,4.3455,4.3456,0,0,0,0,0,0,0,4.3328,4.3336,4.3416,4.339,4.339,4.3379,4.3383,4.3423,4.3426,4.3399,4.3396,4.3402,4.343,4.3443,4.3447,4.351,4.3452,4.3455,4.3457,4.3458,4.3627,4.3629,0,0,0,0,0,0,4.3327,4.3333,4.3415,4.3417,4.3354,4.3383,4.3387,4.3409,4.3425,4.3426,4.3403,4.34,4.3438,4.3443,4.3448,4.3525,4.3455,4.3459,4.3461,4.3624,4.3627,4.363,0,0,0,0,0,0,4.3325,4.3334,4.3413,4.3375,4.3384,4.3387,4.3411,4.3411,4.3424,4.3429,4.3429,4.3417,4.3437,4.3443,4.3492,4.3526,4.346,4.3463,4.3622,4.3625,4.3629,4.368,0,0,0,0,0,0,4.3322,4.3334,4.336,4.3376,4.3386,4.3458,4.3414,4.3413,4.343,4.3426,4.3442,4.3442,4.3435,4.3487,4.3496,4.3529,4.3466,4.3619,4.3623,4.3627,4.3676,4.3685,4.3694,0,0,0,0,0,4.3318,4.3372,4.3361,4.3371,4.3419,4.346,4.3466,4.3459,4.3433,4.3459,4.3462,4.3441,4.3521,4.3493,4.3502,4.3537,4.3616,4.3622,4.3627,4.3672,4.3683,4.3693,0,0,0,0,0,0,4.3357,4.3373,4.3362,4.3423,4.3441,4.3454,4.3486,4.3471,4.3496,4.349,4.3479,4.3482,4.3535,4.3541,4.3509,4.3601,4.3564,4.3572,4.3595,4.3606,4.3615,4.3612,4.3469,0,0,0,0,0,4.3374,4.3408,4.3419,4.3472,4.3482,4.3482,4.35,4.3493,4.351,4.3517,4.3524,4.354,4.3569,4.3588,4.3615,4.3677,4.3679,4.3705,4.3714,4.3722,4.3728,4.3761,4.3773,4.3648,4.3648,4.3647,0,0,4.3407,4.342,4.3442,4.348,4.3493,4.3527,4.3489,4.3526,4.3551,4.3522,4.357,4.3576,4.3593,4.3649,4.3674,4.3656,4.3763,4.3729,4.3734,4.3737,4.3768,4.378,4.379,4.3651,4.3651,4.365,0,0,4.3485,4.3498,4.3544,4.3558,4.3579,4.3579,4.359,4.3606,4.361,4.3657,4.3637,4.3665,4.3715,4.3728,4.3741,4.3826,4.3807,4.3834,4.3881,4.3913,4.3923,4.3931,4.3961,4.3972,4.3841,4.3841,4.3841,0,4.3523,4.3575,4.3568,4.3608,4.3625,4.3603,4.3648,4.3662,4.369,4.3701,4.3681,4.3743,4.3753,4.3812,4.3833,4.3844,4.3856,4.3832,4.3922,4.3931,4.3939,4.3967,4.3978,4.3844,4.3844,4.3843,4.3843,0,4.3621,4.3657,4.3691,4.3721,4.3742,4.3784,4.3782,4.3804,4.3796,4.3798,4.3846,4.3858,4.3887,4.39,4.3891,4.3958,4.3946,4.3924,4.3887,4.3954,4.398,4.3991,4.3849,4.3847,4.3846,4.3846,0,0,4.3723,4.375,4.3763,4.3776,4.3798,4.3825,4.3866,4.3896,4.3915,4.3935,4.3968,4.4011,4.3992,4.4007,4.3999,4.4028,4.4093,4.4002,4.4002,4.4018,4.4167,4.4182,4.4195,4.4082,4.4084,4.4085,4.4165,0,4.3802,4.3875,4.3871,4.3938,4.3972,4.3951,4.3987,4.4003,4.4007,4.4034,4.4037,4.4068,4.404,4.4049,4.4076,4.4079,4.4123,4.4074,4.4111,4.4113,4.4107,4.4209,4.4225,4.43,4.4175,4.4177,4.4178,0,4.3903,4.3929,4.4001,4.4018,4.4032,4.4064,4.4091,4.4118,4.4136,4.4137,4.4154,4.4142,4.4182,4.4145,4.4199,4.4166,4.4181,4.4185,4.4188,4.4191,4.4149,4.4213,4.4324,4.4335,4.4194,4.4193,4.4192,0,4.397,4.4023,4.4073,4.4085,4.4106,4.413,4.4139,4.4155,4.4174,4.4197,4.4209,4.4236,4.425,4.4271,4.4266,4.424,4.4322,4.4284,4.4322,4.4322,4.4339,4.4338,4.4453,4.435,4.435,4.435,4.435,0,4.4058,4.4103,4.4104,4.4134,4.4183,4.4177,4.4226,4.4232,4.4247,4.4278,4.4261,4.429,4.4282,4.431,4.4307,4.4352,4.4359,4.4359,4.4357,4.436,4.436,4.4369,4.4364,4.4353,4.4352,4.4352,4.4351,0,4.4141,4.4144,4.4197,4.4214,4.4219,4.4254,4.4268,4.4296,4.4299,4.4338,4.4346,4.435,4.4382,4.438,4.4415,4.4413,4.4469,4.4461,4.4463,4.4461,4.4499,4.4496,4.4624,4.464,4.4527,4.4528,4.4529,0,4.4197,4.4231,4.4252,4.4272,4.4284,4.4317,4.4336,4.4332,4.4352,4.4376,4.4401,4.4432,4.4457,4.4509,4.4514,4.4541,4.4533,4.4576,4.4537,4.4539,4.4533,4.4531,4.4534,4.4584,4.4585,4.4586,4.4587,0,4.4295,4.4295,4.4324,4.4354,4.4378,4.4401,4.4422,4.4439,4.4436,4.446,4.4494,4.4513,4.4551,4.4582,4.4608,4.4616,4.4601,4.46,4.461,4.4612,4.4612,4.4612,4.4484,4.4596,4.4595,4.4595,4.4594,4.4594,4.4365,4.4395,4.4415,4.4448,4.4464,4.4484,4.4512,4.4519,4.4547,4.4579,4.4574,4.4612,4.4629,4.4663,4.4674,4.4702,4.4687,4.4701,4.4705,4.4708,4.4713,4.4609,4.4707,4.4707,4.4706,4.4706,4.4706,0,4.4462,4.4474,4.4505,4.4536,4.4562,4.4548,4.457,4.4592,4.4627,4.4645,4.467,4.4709,4.4739,4.4746,4.4775,4.4796,4.479,4.4804,4.4802,4.4804,4.4725,4.4714,4.4809,4.4809,4.4809,4.4809,4.4808,4.4808,4.4515,4.4564,4.4567,4.4624,4.4635,4.4673,4.4688,4.4706,4.472,4.4765,4.4791,4.4796,4.481,4.484,4.4866,4.4868,4.4878,4.4895,4.4894,4.482,4.4809,4.48,4.4788,4.4898,4.4898,4.497,4.497,4.4971]}]]